Flag for Pakistan Weather past 2 weeks in Lahore, Pakistan

Now
43 °F

Fog.


Feels Like: 43 °F
Forecast: 41 / 60 °F
Wind: No wind

Location: Lahore Airport

Current Time: Jan 27, 2015 at 9:18:45 AM

Latest Report: Jan 27, 2015 at 8:25 AM


Visibility: 0 mi

Pressure: 30.18 "Hg

Humidity: 100%

Dew point: 43 °F

Location of LahoreLocation

Historic Weather in Lahore — Graph

°F

Lahore temperature yesterday

Maximum temperature yesterday: 57 °F (at 3:00 PM)
Minimum temperature yesterday: 46 °F (at 3:55 AM)
Average temperature yesterday: 52 °F

Past Weeks' High & Low Weather Summary

 TemperatureHumidityPressure
High70 °F (Jan 16, 2:30 PM)100% (Jan 12, 7:25 AM)30.24 "Hg (Jan 12, 7:25 AM)
Low41 °F (Jan 12, 7:25 AM)31% (Jan 17, 3:00 PM)29.92 "Hg (Jan 14, 3:25 AM)
Average53 °F76%30.11 "Hg
* Reported Jan 12 7:25 AM — Jan 27 7:55 AM, Lahore, Weather by CustomWeather, © 2014

Note: Actual official high and low records may vary slightly from our data, if they occured in-between our weather recording intervals... More about our weather records

Advertising

Lahore weather history for previous 24 hours

 ConditionsComfort  
Time TempWeatherWind HumidityBarometerVisibility
7:55 AM
Jan 27
43 °FFog.3 mph100%30.15 "Hg0 mi
7:25 AM43 °FFog.3 mph100%30.15 "Hg0 mi
6:55 AM41 °FFog.No wind100%30.15 "Hg0 mi
6:25 AM41 °FFog.No wind100%30.12 "Hg0 mi
5:55 AM43 °FFog.No wind100%30.12 "Hg0 mi
5:00 AM43 °FFog.No wind100%30.09 "Hg0 mi
4:25 AM45 °FFog.No wind100%30.09 "Hg0 mi
3:55 AM46 °FFog.No wind87%30.09 "Hg1 mi
3:25 AM46 °FFog.No wind87%30.12 "Hg1 mi
2:55 AM46 °FFog.No wind87%30.12 "Hg1 mi
2:25 AM46 °FFog.No wind87%30.12 "Hg1 mi
1:55 AM46 °FFog.3 mph87%30.12 "Hg1 mi
1:25 AM48 °FFog.3 mph82%30.12 "Hg1 mi
12:55 AM48 °FFog.No wind82%30.12 "Hg1 mi
12:25 AM48 °FFog.3 mph82%30.12 "Hg1 mi
11:55 PM
Jan 26
48 °FFog.No wind82%30.15 "Hg1 mi
11:25 PM48 °FFog.No wind87%30.15 "Hg1 mi
10:55 PM48 °FFog.3 mph87%30.15 "Hg1 mi
10:25 PM50 °FFog.5 mph82%30.15 "Hg1 mi
9:55 PM50 °FFog.3 mph82%30.15 "Hg2 mi
9:25 PM50 °FClear.3 mph82%30.15 "Hg2 mi
8:55 PM52 °FClear.No wind72%30.15 "Hg2 mi
8:25 PM52 °FClear.No wind77%30.15 "Hg2 mi
8:00 PM52 °FClear.No wind77%30.12 "Hg2 mi
7:30 PM54 °FClear.No wind72%30.12 "Hg2 mi
6:55 PM54 °FClear.No wind72%30.12 "Hg2 mi
6:30 PM55 °FClear.No wind67%30.12 "Hg2 mi
6:00 PM55 °FPassing clouds.3 mph67%30.09 "Hg2 mi
5:30 PM55 °FScattered clouds.6 mph67%30.12 "Hg2 mi
5:00 PM57 °FScattered clouds.5 mph63%30.12 "Hg2 mi
4:30 PM57 °FScattered clouds.6 mph63%30.12 "Hg2 mi
4:00 PM57 °FScattered clouds.6 mph63%30.12 "Hg2 mi
3:30 PM57 °FScattered clouds.7 mph63%30.12 "Hg2 mi
3:00 PM57 °FScattered clouds.5 mph63%30.12 "Hg2 mi
2:30 PM55 °FScattered clouds.6 mph67%30.15 "Hg1 mi
2:00 PM55 °FBroken clouds.6 mph67%30.15 "Hg1 mi
1:25 PM55 °FBroken clouds.7 mph72%30.18 "Hg1 mi
12:55 PM55 °FBroken clouds.7 mph72%30.21 "Hg1 mi
12:25 PM55 °FBroken clouds.7 mph72%30.21 "Hg1 mi
11:55 AM55 °FBroken clouds.6 mph72%30.21 "Hg1 mi
11:25 AM54 °FScattered clouds.6 mph72%30.24 "Hg1 mi
10:55 AM54 °FScattered clouds.3 mph72%30.24 "Hg1 mi
10:25 AM52 °FScattered clouds.No wind77%30.24 "Hg1 mi
9:55 AM52 °FScattered clouds.No wind77%30.24 "Hg1 mi
9:25 AM50 °FFog.No wind82%30.21 "Hg1 mi
Weather by CustomWeather, © 2014

See weather overviewHow to use our weather pages